Time,TemperatureF,DewpointF,PressureIn,WindDirection,WindDirectionDegrees,WindSpeedMPH,WindSpeedGustMPH,Humidity,HourlyPrecipIn,Conditions,Clouds,dailyrainin,SoftwareType,DateUTC
2013-01-02 00:00:00,7.0,2.4,29.93,WNW,292,8.0,20.0,81,0.00,,,0.00,Weather View 32 v70,2013-01-02 05:00:00,
2013-01-02 00:04:00,7.0,2.4,29.93,WNW,292,8.0,20.0,81,0.00,,,0.00,Weather View 32 v70,2013-01-02 05:04:00,
2013-01-02 00:32:00,7.0,2.7,29.94,West,270,7.0,20.0,82,0.00,,,0.00,Weather View 32 v70,2013-01-02 05:32:00,
2013-01-02 01:04:00,6.0,2.2,29.95,West,270,9.0,16.0,84,0.00,,,0.00,Weather View 32 v70,2013-01-02 06:04:00,
2013-01-02 01:31:00,6.0,2.0,29.95,WSW,247,3.0,16.0,83,0.00,,,0.00,Weather View 32 v70,2013-01-02 06:31:00,
2013-01-02 02:03:00,5.0,1.7,29.96,West,270,12.0,15.0,86,0.00,,,0.00,Weather View 32 v70,2013-01-02 07:03:00,
2013-01-02 02:32:00,4.0,1.0,29.96,WNW,292,5.0,13.0,87,0.00,,,0.00,Weather View 32 v70,2013-01-02 07:32:00,
2013-01-02 03:04:00,4.0,1.2,29.96,NNW,337,4.0,13.0,88,0.00,,,0.00,Weather View 32 v70,2013-01-02 08:04:00,
2013-01-02 03:30:00,2.0,0.0,29.96,NNW,337,5.0,10.0,91,0.00,,,0.00,Weather View 32 v70,2013-01-02 08:30:00,
2013-01-02 04:01:00,-1.0,-1.0,29.97,North,360,6.0,9.0,100,0.00,,,0.00,Weather View 32 v70,2013-01-02 09:01:00,
2013-01-02 04:31:00,-1.0,-1.0,29.97,NNW,337,6.0,8.0,100,0.00,,,0.00,Weather View 32 v70,2013-01-02 09:31:00,
2013-01-02 05:01:00,0.0,0.0,29.98,NW,315,6.0,8.0,100,0.00,,,0.00,Weather View 32 v70,2013-01-02 10:01:00,
2013-01-02 05:31:00,-2.0,-2.0,29.99,North,360,6.0,7.0,100,0.00,,,0.00,Weather View 32 v70,2013-01-02 10:31:00,
2013-01-02 06:01:00,-2.0,-2.0,29.99,NNW,337,6.0,7.0,100,0.00,,,0.00,Weather View 32 v70,2013-01-02 11:01:00,
2013-01-02 06:31:00,-2.0,-2.0,29.99,NNW,337,5.0,8.0,100,0.00,,,0.00,Weather View 32 v70,2013-01-02 11:31:00,
2013-01-02 06:36:00,-2.0,-2.0,29.99,NNW,337,5.0,8.0,100,0.00,,,0.00,Weather View 32 v70,2013-01-02 11:36:00,
2013-01-02 07:02:00,-2.0,-2.0,29.99,NNW,337,6.0,8.0,100,0.00,,,0.00,Weather View 32 v70,2013-01-02 12:02:00,
2013-01-02 07:30:00,-1.0,-1.0,29.99,NNW,337,4.0,9.0,100,0.00,,,0.00,Weather View 32 v70,2013-01-02 12:30:00,
2013-01-02 07:32:00,-1.0,-1.0,29.99,NNW,337,4.0,9.0,100,0.00,,,0.00,Weather View 32 v70,2013-01-02 12:32:00,
2013-01-02 08:01:00,1.0,1.0,29.98,NNW,337,4.0,9.0,100,0.00,,,0.00,Weather View 32 v70,2013-01-02 13:01:00,
2013-01-02 08:30:00,5.0,3.4,29.97,WSW,247,6.0,9.0,93,0.00,,,0.00,Weather View 32 v70,2013-01-02 13:30:00,
2013-01-02 08:31:00,5.0,3.4,29.97,WSW,247,6.0,9.0,93,0.00,,,0.00,Weather View 32 v70,2013-01-02 13:31:00,
2013-01-02 09:02:00,7.0,2.9,29.97,WNW,292,6.0,12.0,83,0.00,,,0.00,Weather View 32 v70,2013-01-02 14:02:00,
2013-01-02 09:30:00,9.0,4.1,29.97,WSW,247,9.0,16.0,80,0.00,,,0.00,Weather View 32 v70,2013-01-02 14:30:00,
2013-01-02 10:00:00,11.0,4.6,29.96,West,270,9.0,17.0,75,0.00,,,0.00,Weather View 32 v70,2013-01-02 15:00:00,
2013-01-02 10:30:00,13.0,3.5,29.94,WNW,292,5.0,18.0,65,0.00,,,0.00,Weather View 32 v70,2013-01-02 15:30:00,
2013-01-02 10:31:00,13.0,3.5,29.94,WNW,292,5.0,18.0,65,0.00,,,0.00,Weather View 32 v70,2013-01-02 15:31:00,
2013-01-02 11:00:00,14.0,3.4,29.92,NW,315,4.0,22.0,62,0.00,,,0.00,Weather View 32 v70,2013-01-02 16:00:00,
2013-01-02 11:30:00,14.0,2.7,29.90,WSW,247,10.0,22.0,60,0.00,,,0.00,Weather View 32 v70,2013-01-02 16:30:00,
2013-01-02 11:31:00,14.0,2.7,29.90,WSW,247,10.0,22.0,60,0.00,,,0.00,Weather View 32 v70,2013-01-02 16:31:00,
2013-01-02 12:01:00,15.0,3.3,29.91,WNW,292,10.0,25.0,59,0.00,,,0.00,Weather View 32 v70,2013-01-02 17:01:00,
2013-01-02 12:30:00,14.0,3.0,29.89,WNW,292,18.0,25.0,61,0.00,,,0.00,Weather View 32 v70,2013-01-02 17:30:00,
2013-01-02 12:31:00,14.0,3.0,29.89,WNW,292,18.0,25.0,61,0.00,,,0.00,Weather View 32 v70,2013-01-02 17:31:00,
2013-01-02 13:00:00,15.0,2.9,29.90,NW,315,10.0,29.0,58,0.00,,,0.00,Weather View 32 v70,2013-01-02 18:00:00,
2013-01-02 13:30:00,15.0,1.0,29.89,WNW,292,15.0,29.0,53,0.00,,,0.00,Weather View 32 v70,2013-01-02 18:30:00,
2013-01-02 13:31:00,15.0,1.0,29.89,WNW,292,15.0,29.0,53,0.00,,,0.00,Weather View 32 v70,2013-01-02 18:31:00,
2013-01-02 14:00:00,14.0,0.8,29.90,NW,315,17.0,28.0,55,0.00,,,0.00,Weather View 32 v70,2013-01-02 19:00:00,
2013-01-02 14:31:00,13.0,-2.1,29.92,WNW,292,9.0,28.0,50,0.00,,,0.00,Weather View 32 v70,2013-01-02 19:31:00,
2013-01-02 15:02:00,13.0,-1.3,29.93,NNW,337,13.0,29.0,52,0.00,,,0.00,Weather View 32 v70,2013-01-02 20:02:00,
2013-01-02 15:31:00,12.0,-1.8,29.93,NW,315,15.0,31.0,53,0.00,,,0.00,Weather View 32 v70,2013-01-02 20:31:00,
2013-01-02 16:01:00,10.0,-2.6,29.97,WSW,247,9.0,31.0,56,0.00,,,0.00,Weather View 32 v70,2013-01-02 21:01:00,
2013-01-02 16:31:00,9.0,-2.1,29.99,WNW,292,10.0,23.0,60,0.00,,,0.00,Weather View 32 v70,2013-01-02 21:31:00,
2013-01-02 17:01:00,8.0,-3.0,30.00,NW,315,12.0,26.0,60,0.00,,,0.00,Weather View 32 v70,2013-01-02 22:01:00,
2013-01-02 17:07:00,8.0,-3.0,30.00,NW,315,12.0,26.0,60,0.00,,,0.00,Weather View 32 v70,2013-01-02 22:07:00,
2013-01-02 17:32:00,8.0,-3.0,30.03,NW,315,5.0,26.0,60,0.00,,,0.00,Weather View 32 v70,2013-01-02 22:32:00,
2013-01-02 18:00:00,7.0,-3.3,30.04,West,270,16.0,26.0,62,0.00,,,0.00,Weather View 32 v70,2013-01-02 23:00:00,
2013-01-02 18:02:00,7.0,-3.3,30.04,West,270,16.0,26.0,62,0.00,,,0.00,Weather View 32 v70,2013-01-02 23:02:00,
2013-01-02 18:32:00,6.0,-3.2,30.04,West,270,15.0,28.0,65,0.00,,,0.00,Weather View 32 v70,2013-01-02 23:32:00,
2013-01-02 19:00:00,5.0,-3.2,30.06,WNW,292,7.0,28.0,68,0.00,,,0.00,Weather View 32 v70,2013-01-03 00:00:00,
2013-01-02 19:01:00,5.0,-3.2,30.06,WNW,292,7.0,28.0,68,0.00,,,0.00,Weather View 32 v70,2013-01-03 00:01:00,
2013-01-02 19:31:00,3.0,-4.6,30.08,NW,315,9.0,23.0,70,0.00,,,0.00,Weather View 32 v70,2013-01-03 00:31:00,
2013-01-02 20:00:00,3.0,-4.3,30.09,WNW,292,20.0,26.0,71,0.00,,,0.00,Weather View 32 v70,2013-01-03 01:00:00,
2013-01-02 20:02:00,3.0,-4.3,30.09,WNW,292,20.0,26.0,71,0.00,,,0.00,Weather View 32 v70,2013-01-03 01:02:00,
2013-01-02 20:35:00,2.0,-4.6,30.08,WNW,292,7.0,26.0,73,0.00,,,0.00,Weather View 32 v70,2013-01-03 01:35:00,
2013-01-02 21:00:00,2.0,-4.4,30.09,NNW,337,10.0,29.0,74,0.00,,,0.00,Weather View 32 v70,2013-01-03 02:00:00,
2013-01-02 21:01:00,2.0,-4.4,30.09,NNW,337,10.0,29.0,74,0.00,,,0.00,Weather View 32 v70,2013-01-03 02:01:00,
2013-01-02 21:32:00,1.0,-5.1,30.09,NW,315,15.0,29.0,75,0.00,,,0.00,Weather View 32 v70,2013-01-03 02:32:00,
2013-01-02 22:00:00,1.0,-4.5,30.10,WNW,292,6.0,30.0,77,0.00,,,0.00,Weather View 32 v70,2013-01-03 03:00:00,
2013-01-02 22:02:00,1.0,-4.5,30.10,WNW,292,6.0,30.0,77,0.00,,,0.00,Weather View 32 v70,2013-01-03 03:02:00,
2013-01-02 23:01:00,1.0,-4.2,30.13,NNW,337,10.0,23.0,78,0.00,,,0.00,Weather View 32 v70,2013-01-03 04:01:00,
2013-01-02 23:31:00,1.0,-4.0,30.10,WNW,292,8.0,26.0,79,0.00,,,0.00,Weather View 32 v70,2013-01-03 04:31:00,